[[{"header":{"parameterUnit":"m.s-1","parameterCategory":2,"la1":30.2991,"la2":30.254,"lo1":-89.0895,"lo2":-89.0444,"dy":0.0017,"dx":0.0017,"nx":28,"ny":28,"refTime":"2025-04-26T09:00:00:Z","depth":"0","parameterNumber":2,"parameterNumberName":"U-component_of_CURRENTS"},"data":[0,0,0,0,0,0,0,0,0,0,0,0,0,0,0,0,0,0,0,0,0,0,0,0,0,0,0,0,0,0,0,0,0,0,0,0,0,0,0,0,0,0,0,0,0,0,0,0,0,0,0,0,0,0,0,0,0,0,0.298,0.2981,0,0.3094,0.3095,0.3095,0.31,0.3099,0.3098,0.3097,0.312,0.3122,0.3123,0,0,0,0,0,0,0,0,0,0,0,0,0,0.2752,0.2756,0.2979,0.2981,0.2983,0.3094,0.3095,0.3096,0.31,0.3099,0.3098,0.3097,0.312,0.3122,0.3123,0,0,0,0,0,0,0,0,0,0,0,0,0,0.2852,0.2757,0.2979,0.3003,0.3007,0.3093,0.3095,0.3096,0.31,0.3099,0.3098,0.3097,0.3119,0.3121,0.3124,0.3162,0,0,0.313,0.3131,0,0,0,0,0,0,0,0,0.2846,0.2859,0.2998,0.3002,0.3006,0.3086,0.3023,0.3115,0.3101,0.3059,0.3097,0.3096,0.3105,0.3108,0.3126,0.3163,0.3164,0.313,0.3131,0.3132,0.3133,0,0,0,0,0,0,0,0.2839,0.2854,0.3019,0.3,0.3005,0.3004,0.3016,0.3041,0.3082,0.3062,0.3064,0.3086,0.3106,0.3124,0.3126,0.3165,0.313,0.3132,0.3133,0.3134,0.3244,0.3245,0,0,0,0,0,0,0.2839,0.2849,0.3016,0.3023,0.2927,0.3009,0.3023,0.3057,0.3084,0.3089,0.3087,0.3086,0.3121,0.3124,0.3127,0.3181,0.3132,0.3134,0.3136,0.3242,0.3244,0.3246,0,0,0,0,0,0,0.2834,0.2854,0.3011,0.2941,0.2962,0.3015,0.3053,0.306,0.3079,0.3105,0.3106,0.3099,0.312,0.3124,0.3165,0.3182,0.3135,0.3137,0.324,0.3243,0.3245,0.3285,0,0,0,0,0,0,0.2827,0.2851,0.2879,0.2942,0.2966,0.3074,0.3056,0.3064,0.3097,0.3096,0.3116,0.3117,0.3119,0.3162,0.3167,0.3184,0.3139,0.3238,0.3241,0.3244,0.3282,0.3289,0.3295,0,0,0,0,0,0.2819,0.2866,0.288,0.2901,0.3003,0.3076,0.3088,0.3116,0.3099,0.3123,0.3135,0.3116,0.3184,0.3166,0.3171,0.3189,0.3236,0.324,0.3244,0.3279,0.3287,0.3294,0,0,0,0,0,0,0.2798,0.2874,0.289,0.2962,0.3019,0.3079,0.3112,0.312,0.315,0.3141,0.3145,0.315,0.319,0.3191,0.317,0.3231,0.3204,0.3209,0.3229,0.3237,0.3243,0.3241,0.3141,0,0,0,0,0,0.2805,0.285,0.2924,0.2983,0.3012,0.3058,0.309,0.3107,0.3144,0.3155,0.317,0.3185,0.3213,0.3224,0.3249,0.3287,0.3297,0.33,0.3307,0.3312,0.3316,0.336,0.3371,0.3258,0.3258,0.3258,0,0,0.2815,0.2863,0.2891,0.298,0.3022,0.3072,0.3073,0.3127,0.3156,0.3153,0.3193,0.3212,0.323,0.3274,0.3291,0.3274,0.3352,0.3317,0.3321,0.3322,0.3365,0.3376,0.3386,0.326,0.326,0.326,0,0,0.2843,0.29,0.2935,0.2985,0.3054,0.3088,0.3103,0.3163,0.3178,0.3228,0.323,0.3265,0.3303,0.3325,0.3338,0.3397,0.3388,0.3398,0.3426,0.3469,0.3479,0.3487,0.3519,0.353,0.3397,0.3397,0.3397,0,0.2849,0.2908,0.296,0.3006,0.3047,0.3092,0.3133,0.3171,0.3231,0.325,0.3243,0.3317,0.3328,0.3384,0.3403,0.341,0.343,0.3392,0.3477,0.3485,0.3493,0.3524,0.3535,0.3399,0.3399,0.3399,0.3399,0,0.2894,0.2945,0.2977,0.3043,0.3093,0.3144,0.3201,0.3237,0.3255,0.3288,0.3348,0.3381,0.342,0.3432,0.3435,0.3498,0.3493,0.3482,0.3453,0.3507,0.3536,0.3547,0.3403,0.3402,0.3401,0.3401,0,0,0.2879,0.2985,0.2988,0.3024,0.3112,0.3156,0.3211,0.3277,0.3318,0.3363,0.3415,0.3464,0.348,0.3497,0.351,0.3547,0.3619,0.3539,0.354,0.3564,0.3714,0.371,0.3721,0.3624,0.3626,0.3628,0.3714,0,0.2891,0.2965,0.3016,0.3086,0.3133,0.3193,0.3247,0.3308,0.3363,0.3431,0.3463,0.3528,0.3506,0.3539,0.357,0.3618,0.365,0.3597,0.3665,0.3667,0.3651,0.3735,0.3686,0.3759,0.3724,0.3726,0.3728,0,0.29,0.2949,0.3009,0.3108,0.3134,0.3176,0.3267,0.333,0.343,0.3479,0.354,0.3579,0.3648,0.3622,0.3709,0.3678,0.3696,0.3722,0.3726,0.3714,0.3683,0.3701,0.378,0.3722,0.3745,0.3743,0.3742,0,0.284,0.2942,0.2982,0.3017,0.3134,0.3159,0.3223,0.3327,0.3387,0.3518,0.357,0.3658,0.3711,0.3751,0.3791,0.3762,0.3887,0.385,0.386,0.3859,0.3827,0.382,0.3852,0.3908,0.3908,0.3908,0.3907,0,0.2824,0.2859,0.2954,0.2976,0.3029,0.3126,0.3195,0.3284,0.3406,0.3486,0.3583,0.3661,0.3748,0.3818,0.3833,0.3893,0.3917,0.3888,0.3893,0.3841,0.3834,0.3787,0.3747,0.3911,0.391,0.3909,0.3909,0,0.2752,0.2816,0.2871,0.2972,0.3,0.3037,0.3161,0.3224,0.3354,0.3462,0.3505,0.368,0.3797,0.3862,0.3966,0.3954,0.3923,0.4013,0.3945,0.394,0.3878,0.3842,0.3704,0.3583,0.4045,0.4045,0.4046,0,0.2723,0.2741,0.2836,0.2858,0.2896,0.2966,0.3017,0.3172,0.3251,0.3464,0.3511,0.3681,0.3793,0.3955,0.4015,0.4076,0.3936,0.4037,0.3969,0.3893,0.3857,0.3662,0.3554,0.3945,0.3944,0.3944,0.3944,0,0.266,0.2689,0.273,0.2776,0.2818,0.2877,0.2968,0.3018,0.3208,0.3314,0.3482,0.3599,0.3816,0.3913,0.4026,0.4048,0.3883,0.4031,0.3978,0.3812,0.3577,0.3457,0.3859,0.3941,0.3941,0.3942,0.3942,0.3942,0.26,0.2605,0.2652,0.2689,0.2737,0.2773,0.2788,0.2909,0.3015,0.3163,0.3362,0.3506,0.3775,0.3959,0.3952,0.397,0.3857,0.3901,0.3875,0.3691,0.3533,0.3928,0.3995,0.3996,0.3996,0.3997,0.3997,0,0.2516,0.2531,0.2565,0.2602,0.2612,0.2669,0.2742,0.2749,0.2827,0.3025,0.3168,0.3439,0.3619,0.3785,0.3953,0.3856,0.3639,0.3761,0.3493,0.34,0.3811,0.377,0.3761,0.3761,0.3761,0.3761,0.3761,0.3761,0.247,0.2458,0.2479,0.2461,0.2481,0.2455,0.2464,0.2505,0.2618,0.2763,0.2916,0.3098,0.3515,0.3863,0.389,0.3789,0.3472,0.3353,0.3252,0.3608,0.3618,0.3627,0.358,0.3531,0.3531,0.2723,0.2718,0.2713]},{"header":{"parameterUnit":"m.s-1","parameterCategory":2,"la1":30.2991,"la2":30.254,"lo1":-89.0895,"lo2":-89.0444,"dy":0.0017,"dx":0.0017,"nx":28,"ny":28,"refTime":"2025-04-26T09:00:00:Z","depth":"0","parameterNumber":3,"parameterNumberName":"V-component_of_CURRENTS"},"data":[0,0,0,0,0,0,0,0,0,0,0,0,0,0,0,0,0,0,0,0,0,0,0,0,0,0,0,0,0,0,0,0,0,0,0,0,0,0,0,0,0,0,0,0,0,0,0,0,0,0,0,0,0,0,0,0,0,0,-0.005,-0.0051,0,-0.0154,-0.0155,-0.0157,-0.0252,-0.0254,-0.0255,-0.0256,-0.0367,-0.0368,-0.037,0,0,0,0,0,0,0,0,0,0,0,0,0,0.001,0.001,-0.005,-0.0052,-0.0053,-0.0154,-0.0155,-0.0157,-0.0252,-0.0254,-0.0255,-0.0257,-0.0366,-0.0368,-0.037,0,0,0,0,0,0,0,0,0,0,0,0,0,-0.0046,0.001,-0.005,-0.0113,-0.012,-0.0154,-0.0156,-0.0157,-0.0252,-0.0254,-0.0255,-0.0257,-0.0365,-0.0368,-0.0371,-0.035,0,0,-0.0379,-0.038,0,0,0,0,0,0,0,0,-0.0043,-0.0048,-0.0103,-0.0109,-0.0117,-0.0193,-0.0175,-0.0222,-0.0251,-0.0201,-0.0256,-0.0258,-0.0308,-0.0316,-0.033,-0.0355,-0.036,-0.0379,-0.0381,-0.0382,-0.0383,0,0,0,0,0,0,0,-0.0039,-0.0045,-0.0091,-0.0104,-0.0113,-0.0156,-0.0165,-0.0185,-0.0242,-0.0205,-0.0213,-0.0225,-0.0312,-0.0327,-0.0333,-0.0361,-0.0379,-0.0381,-0.0383,-0.0384,-0.0405,-0.0404,0,0,0,0,0,0,-0.0023,-0.004,-0.0087,-0.0094,-0.0085,-0.0155,-0.0166,-0.0166,-0.0242,-0.0256,-0.0223,-0.0229,-0.0322,-0.033,-0.0337,-0.032,-0.0382,-0.0384,-0.0386,-0.0406,-0.0405,-0.0403,0,0,0,0,0,0,-0.0021,-0.0025,-0.0083,-0.0071,-0.0082,-0.0154,-0.0154,-0.0167,-0.0184,-0.0256,-0.027,-0.0227,-0.0323,-0.0334,-0.0357,-0.0325,-0.0385,-0.0388,-0.0407,-0.0405,-0.0404,-0.0283,0,0,0,0,0,0,-0.0018,-0.0023,-0.0013,-0.0069,-0.0082,-0.0085,-0.0152,-0.0168,-0.0189,-0.0198,-0.0263,-0.0276,-0.0326,-0.0353,-0.036,-0.033,-0.039,-0.0408,-0.0406,-0.0404,-0.0289,-0.0278,-0.0269,0,0,0,0,0,-0.0015,0.0018,-0.0011,-0.0017,-0.0066,-0.0083,-0.0092,-0.0151,-0.0187,-0.0176,-0.0235,-0.0274,-0.0345,-0.0354,-0.0362,-0.0333,-0.0409,-0.0407,-0.0405,-0.0293,-0.028,-0.0269,0,0,0,0,0,0,0.0058,0.001,-0.0024,-0.0005,-0.0038,-0.01,-0.0095,-0.0137,-0.0174,-0.0185,-0.026,-0.0274,-0.0286,-0.0323,-0.033,-0.0334,-0.0383,-0.0382,-0.0296,-0.0284,-0.0274,-0.0249,-0.0392,0,0,0,0,0,0.0079,0.0083,0.0031,0.0045,0.0035,-0.0029,-0.0043,-0.0081,-0.0125,-0.0144,-0.0194,-0.0245,-0.028,-0.0293,-0.0331,-0.0322,-0.0366,-0.0311,-0.03,-0.0292,-0.0278,-0.0322,-0.0314,-0.0396,-0.0396,-0.0396,0,0,0.0109,0.0083,0.0086,0.006,0.0028,0.0035,-0.0041,-0.0048,-0.0047,-0.0147,-0.0154,-0.0211,-0.0272,-0.0277,-0.0283,-0.0303,-0.029,-0.0289,-0.028,-0.0272,-0.0319,-0.0311,-0.0304,-0.0394,-0.0394,-0.0395,0,0,0.0182,0.0155,0.0183,0.0165,0.0128,0.0092,0.0096,0.0043,0.0016,0.0001,-0.0075,-0.0111,-0.0158,-0.0198,-0.0224,-0.0175,-0.024,-0.0187,-0.0107,-0.015,-0.0143,-0.0138,-0.0174,-0.0173,-0.0175,-0.0175,-0.0175,0,0.0221,0.0243,0.0191,0.0213,0.0206,0.0127,0.0158,0.0129,0.0072,0.0059,0.0017,-0.0065,-0.0118,-0.013,-0.0121,-0.015,-0.0187,-0.0146,-0.0135,-0.0131,-0.0128,-0.0166,-0.0167,-0.0169,-0.0169,-0.017,-0.0171,0,0.0308,0.0322,0.0343,0.0337,0.033,0.0345,0.0294,0.0283,0.0234,0.0191,0.0161,0.0079,0.003,0.001,-0.0043,-0.004,-0.0078,-0.0122,-0.0162,-0.0113,-0.0156,-0.0159,-0.016,-0.0162,-0.0164,-0.0165,0,0,0.0399,0.0404,0.0407,0.0421,0.0394,0.0398,0.0408,0.0391,0.0396,0.0331,0.0332,0.0258,0.0198,0.0164,0.0093,0.0058,0.0045,-0.0012,-0.0017,-0.0038,-0.0045,-0.0068,-0.0074,-0.0002,-0.0001,-0.0001,-0.0081,0,0.0478,0.0546,0.0522,0.0579,0.0607,0.0547,0.0562,0.0532,0.0491,0.0474,0.0382,0.0353,0.0263,0.024,0.0191,0.0076,0.0042,0.007,-0.0097,-0.0101,-0.0122,-0.0076,-0.0063,-0.0132,-0.0084,-0.0084,-0.0085,0,0.0566,0.0596,0.067,0.0688,0.0695,0.0716,0.0715,0.0721,0.0674,0.0641,0.0591,0.0506,0.0442,0.0356,0.0203,0.0223,0.0108,0.0016,0.001,-0.0055,-0.0129,-0.0177,-0.014,-0.0329,-0.009,-0.0089,-0.0089,0,0.0642,0.0695,0.0755,0.0763,0.0776,0.0795,0.08,0.0773,0.0793,0.075,0.0751,0.0643,0.06,0.0444,0.0245,0.0224,0.0072,0.0013,-0.0113,-0.0117,-0.0158,-0.0165,-0.0315,-0.0085,-0.0085,-0.0084,-0.0084,0,0.0727,0.0772,0.0797,0.0826,0.0898,0.0879,0.0942,0.0926,0.093,0.0968,0.0846,0.0851,0.0619,0.0493,0.0298,0.0094,0.0109,-0.0084,-0.0133,-0.0115,-0.0117,-0.0328,-0.0452,-0.0087,-0.0087,-0.0086,-0.0086,0,0.0796,0.0809,0.0881,0.0918,0.0934,0.0987,0.1042,0.1089,0.1075,0.1124,0.1117,0.1015,0.085,0.0604,0.0355,0.018,-0.0145,-0.0108,-0.0066,-0.0108,-0.0399,-0.0516,-0.0734,-0.0824,-0.0251,-0.0252,-0.0253,0,0.0837,0.0884,0.0953,0.1,0.102,0.1092,0.1143,0.1161,0.1222,0.1227,0.1266,0.1132,0.106,0.0692,0.0347,0.0016,-0.0185,-0.0181,-0.0221,-0.0398,-0.0565,-0.0649,-0.0714,-0.0231,-0.0232,-0.0232,-0.0233,0,0.0918,0.0939,0.0995,0.1096,0.1164,0.1246,0.1327,0.1399,0.1426,0.1469,0.1506,0.1454,0.1104,0.0792,0.0339,0.0092,-0.0319,-0.0201,-0.04,-0.0567,-0.0652,-0.0766,-0.0198,-0.0237,-0.0236,-0.0236,-0.0236,-0.0236,0.0974,0.103,0.1104,0.1195,0.1278,0.1385,0.1473,0.1572,0.1681,0.176,0.1702,0.1674,0.1219,0.0606,0.0245,-0.0366,-0.0382,-0.0533,-0.0661,-0.0727,-0.0815,-0.0246,-0.0331,-0.0332,-0.0332,-0.0332,-0.0332,0,0.104,0.1099,0.1197,0.1304,0.1403,0.1432,0.1581,0.1679,0.1826,0.191,0.1942,0.1718,0.1148,0.0555,-0.026,-0.0709,-0.0886,-0.0967,-0.1089,-0.1134,-0.0637,-0.0635,-0.077,-0.077,-0.0769,-0.0769,-0.0769,-0.0769,0.1079,0.1171,0.1216,0.138,0.1462,0.1603,0.1694,0.1847,0.1955,0.2072,0.2081,0.2043,0.1618,0.0131,-0.0874,-0.1133,-0.1465,-0.1555,-0.1712,-0.1383,-0.1352,-0.1322,-0.1347,-0.1629,-0.1631,-0.2129,-0.2134,-0.2139]}],[{"header":{"parameterUnit":"m.s-1","parameterCategory":2,"la1":30.2991,"la2":30.254,"lo1":-89.0895,"lo2":-89.0444,"dy":0.0017,"dx":0.0017,"nx":28,"ny":28,"refTime":"2025-04-26T09:00:00:Z","depth":"2","parameterNumber":2,"parameterNumberName":"U-component_of_CURRENTS"},"data":[0,0,0,0,0,0,0,0,0,0,0,0,0,0,0,0,0,0,0,0,0,0,0,0,0,0,0,0,0,0,0,0,0,0,0,0,0,0,0,0,0,0,0,0,0,0,0,0,0,0,0,0,0,0,0,0,0,0,0.249,0.249,0,0.2518,0.2519,0.252,0.2544,0.2544,0.2544,0.2544,0.2601,0.2603,0.2605,0,0,0,0,0,0,0,0,0,0,0,0,0,0.2407,0.2409,0.249,0.249,0.249,0.2518,0.2519,0.252,0.2544,0.2544,0.2544,0.2544,0.2601,0.2603,0.2605,0,0,0,0,0,0,0,0,0,0,0,0,0,0.2445,0.241,0.249,0.2502,0.2503,0.2518,0.2519,0.252,0.2544,0.2544,0.2544,0.2543,0.26,0.2602,0.2605,0.2625,0,0,0.2613,0.2614,0,0,0,0,0,0,0,0,0.2443,0.2448,0.25,0.2501,0.2502,0.2523,0.2511,0.2555,0.2544,0.2533,0.2544,0.2543,0.2575,0.258,0.2592,0.2628,0.263,0.2613,0.2614,0.2615,0.2616,0,0,0,0,0,0,0,0.244,0.2447,0.2506,0.25,0.2501,0.2488,0.2494,0.2519,0.2559,0.2534,0.2535,0.2531,0.2576,0.2589,0.2593,0.2631,0.2613,0.2615,0.2617,0.2618,0.2708,0.2708,0,0,0,0,0,0,0.243,0.2445,0.2505,0.2506,0.2466,0.249,0.2497,0.252,0.2558,0.2562,0.2531,0.2532,0.2585,0.259,0.2595,0.266,0.2615,0.2618,0.2619,0.2707,0.2708,0.2709,0,0,0,0,0,0,0.2429,0.2437,0.2504,0.247,0.2477,0.2492,0.2518,0.2521,0.2552,0.2555,0.256,0.2559,0.2585,0.2592,0.2633,0.2661,0.2619,0.2621,0.2706,0.2707,0.2708,0.2765,0,0,0,0,0,0,0.2427,0.2437,0.2476,0.2471,0.2479,0.2524,0.2518,0.2522,0.2546,0.2548,0.2581,0.2584,0.2585,0.2629,0.2636,0.2663,0.2623,0.2705,0.2706,0.2708,0.2762,0.2768,0.2773,0,0,0,0,0,0.2425,0.2429,0.2479,0.2487,0.2526,0.2525,0.2529,0.2539,0.2548,0.2567,0.2588,0.2584,0.2643,0.2633,0.264,0.2669,0.2704,0.2706,0.2708,0.2759,0.2766,0.2773,0,0,0,0,0,0,0.2421,0.2432,0.2486,0.2504,0.2536,0.2527,0.2541,0.2554,0.2588,0.2595,0.2604,0.261,0.2656,0.2653,0.2641,0.2697,0.267,0.2674,0.2707,0.2714,0.2719,0.2711,0.2625,0,0,0,0,0,0.2445,0.2444,0.2483,0.2504,0.2528,0.2554,0.2564,0.2572,0.2584,0.26,0.2616,0.2637,0.2667,0.2683,0.2702,0.274,0.275,0.2759,0.2765,0.277,0.2767,0.2815,0.2825,0.2715,0.2715,0.2715,0,0,0.2437,0.2453,0.2452,0.2503,0.2534,0.2562,0.256,0.2572,0.2596,0.2601,0.2641,0.2662,0.2682,0.2721,0.274,0.2725,0.2808,0.2772,0.2776,0.277,0.2818,0.2829,0.2839,0.2717,0.2716,0.2716,0,0,0.2411,0.2465,0.2471,0.2503,0.255,0.2565,0.2577,0.2598,0.2622,0.2662,0.2673,0.2709,0.2747,0.2765,0.2782,0.283,0.2838,0.2837,0.2862,0.291,0.2919,0.2928,0.2964,0.2975,0.2838,0.2838,0.2838,0,0.2409,0.2451,0.2473,0.2507,0.2531,0.2572,0.2603,0.263,0.2655,0.2682,0.2679,0.2753,0.2766,0.2827,0.2837,0.2844,0.2869,0.2838,0.2919,0.2927,0.2935,0.2969,0.2981,0.2841,0.2841,0.284,0.284,0,0.2417,0.2458,0.246,0.2526,0.2557,0.2574,0.2625,0.266,0.2691,0.2717,0.2784,0.281,0.2851,0.2864,0.2867,0.2932,0.2933,0.2924,0.2904,0.295,0.2983,0.2994,0.2845,0.2844,0.2843,0.2842,0,0,0.2363,0.2446,0.245,0.2498,0.2569,0.2581,0.264,0.2702,0.2747,0.2786,0.2846,0.2892,0.2911,0.2929,0.2946,0.2981,0.3058,0.2977,0.2978,0.3016,0.3167,0.3151,0.3162,0.3074,0.3076,0.3078,0.3172,0,0.2373,0.2422,0.2465,0.2515,0.2555,0.2616,0.2669,0.2726,0.278,0.2844,0.2892,0.2952,0.2937,0.2973,0.3007,0.3054,0.3089,0.3033,0.3113,0.3115,0.3099,0.3175,0.2947,0.3011,0.3183,0.3185,0.3186,0,0.2379,0.2411,0.2462,0.2536,0.2563,0.2597,0.2693,0.2743,0.2844,0.2895,0.2963,0.3005,0.3078,0.3053,0.315,0.3122,0.3143,0.3166,0.3171,0.314,0.3119,0.2991,0.3025,0.3205,0.3203,0.3202,0.3201,0,0.233,0.2401,0.2438,0.2465,0.256,0.2598,0.2652,0.2753,0.2816,0.2929,0.2991,0.3078,0.3139,0.3186,0.3234,0.3206,0.3336,0.3302,0.3305,0.3303,0.3115,0.3094,0.336,0.336,0.336,0.336,0.3359,0,0.231,0.2334,0.2418,0.2437,0.2494,0.2571,0.2647,0.2721,0.284,0.2914,0.3009,0.3086,0.3178,0.3259,0.3276,0.3341,0.3376,0.3326,0.3336,0.3129,0.3109,0.327,0.3258,0.3363,0.3362,0.3362,0.3361,0,0.2248,0.2302,0.2346,0.2441,0.2473,0.251,0.2635,0.2688,0.2816,0.2919,0.2963,0.3122,0.3238,0.3319,0.3416,0.3405,0.3458,0.3461,0.3213,0.3193,0.3377,0.3367,0.3479,0.3479,0.348,0.348,0.348,0,0.2224,0.2242,0.2332,0.2355,0.2397,0.2469,0.2522,0.2659,0.2719,0.2925,0.2964,0.3137,0.3235,0.3397,0.3427,0.3489,0.35,0.3288,0.3186,0.3396,0.3395,0.3384,0.3374,0.2956,0.2952,0.2949,0.2946,0,0.2173,0.2206,0.2236,0.2293,0.2338,0.2395,0.2477,0.2526,0.2685,0.2792,0.2931,0.3038,0.3229,0.3218,0.3327,0.3315,0.3264,0.3225,0.3522,0.2971,0.2914,0.2909,0.2914,0.2917,0.292,0.2922,0.2924,0.2925,0.2121,0.2135,0.2177,0.2215,0.2264,0.2299,0.2304,0.2406,0.2497,0.2625,0.2791,0.2884,0.2994,0.3061,0.3009,0.2979,0.3187,0.3037,0.3042,0.3052,0.2985,0.2932,0.2925,0.2928,0.2931,0.2933,0.2935,0,0.2053,0.2075,0.2104,0.2129,0.2123,0.2201,0.2254,0.224,0.2294,0.2464,0.258,0.2484,0.2546,0.2634,0.257,0.2614,0.2533,0.2493,0.2353,0.2389,0.242,0.2312,0.2078,0.2075,0.2071,0.2068,0,0,0.2012,0.1997,0.2013,0.197,0.1999,0.1965,0.1971,0.1987,0.2069,0.2116,0.2177,0.2426,0.258,0.2276,0.2282,0.2158,0.2232,0.2081,0.2786,0.2658,0.2683,0.2778,0.2661,0,0,0,0,0]},{"header":{"parameterUnit":"m.s-1","parameterCategory":2,"la1":30.2991,"la2":30.254,"lo1":-89.0895,"lo2":-89.0444,"dy":0.0017,"dx":0.0017,"nx":28,"ny":28,"refTime":"2025-04-26T09:00:00:Z","depth":"2","parameterNumber":3,"parameterNumberName":"V-component_of_CURRENTS"},"data":[0,0,0,0,0,0,0,0,0,0,0,0,0,0,0,0,0,0,0,0,0,0,0,0,0,0,0,0,0,0,0,0,0,0,0,0,0,0,0,0,0,0,0,0,0,0,0,0,0,0,0,0,0,0,0,0,0,0,-0.0095,-0.0095,0,-0.0151,-0.0152,-0.0153,-0.0206,-0.0206,-0.0207,-0.0207,-0.0317,-0.0319,-0.0321,0,0,0,0,0,0,0,0,0,0,0,0,0,-0.0069,-0.0069,-0.0094,-0.0095,-0.0095,-0.0151,-0.0152,-0.0153,-0.0206,-0.0206,-0.0207,-0.0207,-0.0316,-0.0319,-0.0322,0,0,0,0,0,0,0,0,0,0,0,0,0,-0.01,-0.0069,-0.0094,-0.0127,-0.013,-0.0151,-0.0152,-0.0153,-0.0206,-0.0206,-0.0207,-0.0208,-0.0315,-0.0318,-0.0322,-0.0332,0,0,-0.0334,-0.0335,0,0,0,0,0,0,0,0,-0.0098,-0.0102,-0.0122,-0.0125,-0.0128,-0.017,-0.0183,-0.0215,-0.0206,-0.018,-0.0207,-0.0208,-0.027,-0.0278,-0.029,-0.0337,-0.0342,-0.0334,-0.0336,-0.0338,-0.0339,0,0,0,0,0,0,0,-0.0096,-0.01,-0.0119,-0.0122,-0.0126,-0.0151,-0.0156,-0.0189,-0.0223,-0.0182,-0.0185,-0.0188,-0.0273,-0.0286,-0.0293,-0.0343,-0.0334,-0.0337,-0.0339,-0.0341,-0.0404,-0.0404,0,0,0,0,0,0,-0.0082,-0.0097,-0.0117,-0.0121,-0.0112,-0.015,-0.0156,-0.0158,-0.0222,-0.0231,-0.0187,-0.019,-0.0279,-0.0288,-0.0297,-0.0307,-0.0338,-0.0341,-0.0343,-0.0405,-0.0404,-0.0404,0,0,0,0,0,0,-0.0081,-0.0083,-0.0115,-0.0109,-0.0114,-0.015,-0.0151,-0.0159,-0.0174,-0.0225,-0.0236,-0.0194,-0.028,-0.0292,-0.0323,-0.0312,-0.0343,-0.0346,-0.0406,-0.0405,-0.0404,-0.0331,0,0,0,0,0,0,-0.008,-0.0082,-0.0079,-0.0107,-0.0114,-0.0119,-0.0151,-0.0159,-0.0173,-0.0177,-0.0235,-0.0245,-0.0281,-0.0317,-0.0327,-0.0318,-0.0349,-0.0406,-0.0405,-0.0404,-0.0334,-0.0328,-0.0322,0,0,0,0,0,-0.0079,-0.0057,-0.0079,-0.0081,-0.0108,-0.0118,-0.0123,-0.0153,-0.0172,-0.0171,-0.0212,-0.0244,-0.0317,-0.032,-0.0331,-0.0323,-0.0407,-0.0406,-0.0404,-0.0337,-0.0329,-0.0322,0,0,0,0,0,0,-0.0037,-0.0061,-0.0086,-0.0072,-0.0094,-0.0126,-0.0121,-0.0148,-0.018,-0.0185,-0.024,-0.0253,-0.0277,-0.0309,-0.031,-0.0338,-0.0366,-0.0367,-0.031,-0.0304,-0.0298,-0.0278,-0.0352,0,0,0,0,0,-0.0028,-0.0023,-0.0055,-0.0045,-0.0052,-0.009,-0.0099,-0.012,-0.015,-0.0164,-0.0205,-0.0246,-0.028,-0.0298,-0.0332,-0.0348,-0.038,-0.0349,-0.0343,-0.0338,-0.0329,-0.0367,-0.0364,-0.04,-0.04,-0.04,0,0,-0.0006,-0.002,-0.0016,-0.0036,-0.0055,-0.0056,-0.0097,-0.01,-0.0103,-0.0171,-0.0186,-0.0229,-0.028,-0.0297,-0.031,-0.0323,-0.0344,-0.0336,-0.0331,-0.0325,-0.0366,-0.0362,-0.0359,-0.0399,-0.0399,-0.0399,0,0,0.0041,0.0025,0.0039,0.0024,0.0,-0.0022,-0.0021,-0.0055,-0.0073,-0.0094,-0.0142,-0.0176,-0.0226,-0.0258,-0.0282,-0.0264,-0.0313,-0.0275,-0.0229,-0.0266,-0.0263,-0.0262,-0.0294,-0.0296,-0.027,-0.027,-0.027,0,0.0066,0.0074,0.0044,0.0049,0.0047,-0.0003,0.0011,-0.0011,-0.0052,-0.0061,-0.0086,-0.0159,-0.0205,-0.0229,-0.0224,-0.025,-0.0279,-0.0251,-0.0258,-0.0257,-0.0256,-0.029,-0.0293,-0.0266,-0.0267,-0.0267,-0.0268,0,0.0113,0.0118,0.0131,0.0117,0.0111,0.012,0.0084,0.0074,0.0044,0.0014,-0.0017,-0.008,-0.0121,-0.0143,-0.0181,-0.0195,-0.022,-0.0247,-0.0273,-0.0248,-0.0286,-0.029,-0.0261,-0.0262,-0.0264,-0.0264,0,0,0.0172,0.0165,0.0167,0.0173,0.0148,0.0153,0.0152,0.0136,0.0142,0.0088,0.0087,0.0019,-0.0019,-0.0048,-0.0102,-0.0139,-0.0164,-0.0184,-0.0188,-0.0212,-0.0243,-0.0256,-0.0262,-0.0194,-0.0194,-0.0195,-0.0271,0,0.0214,0.0245,0.0227,0.0258,0.0272,0.0236,0.0244,0.0223,0.0194,0.0181,0.0109,0.0085,0.0018,0.0002,-0.0046,-0.0132,-0.0172,-0.0141,-0.0269,-0.0272,-0.0283,-0.0266,-0.024,-0.0305,-0.0275,-0.0276,-0.0276,0,0.0259,0.0274,0.0313,0.033,0.0334,0.0344,0.0352,0.0351,0.0315,0.0292,0.0248,0.0193,0.0133,0.0073,-0.0057,-0.0034,-0.0129,-0.0202,-0.0207,-0.0246,-0.0292,-0.0328,-0.0314,-0.0284,-0.0283,-0.0283,-0.0282,0,0.0311,0.0336,0.0372,0.0376,0.0384,0.0399,0.0404,0.0386,0.0406,0.0363,0.037,0.0279,0.0247,0.012,-0.0028,-0.0043,-0.0173,-0.0216,-0.0318,-0.032,-0.0336,-0.0339,-0.0309,-0.0309,-0.0309,-0.0308,-0.0308,0,0.036,0.039,0.0401,0.042,0.0476,0.0457,0.0509,0.0496,0.0499,0.0532,0.0434,0.0442,0.0258,0.0163,0.0009,-0.0156,-0.0147,-0.0303,-0.0338,-0.031,-0.0309,-0.0322,-0.0323,-0.0311,-0.0311,-0.031,-0.031,0,0.0407,0.0411,0.0459,0.0484,0.0501,0.0539,0.0592,0.0627,0.0614,0.0655,0.0651,0.0571,0.0445,0.0258,0.0055,-0.0093,-0.0261,-0.0326,-0.0276,-0.0304,-0.0396,-0.0392,-0.0448,-0.0449,-0.045,-0.0451,-0.0451,0,0.0432,0.046,0.0514,0.0554,0.0568,0.0624,0.0669,0.0682,0.0728,0.074,0.0768,0.0675,0.0623,0.0325,0.0048,-0.0217,-0.0257,-0.0373,-0.0403,-0.038,-0.0409,-0.0403,-0.0398,-0.0399,-0.04,-0.04,-0.04,0,0.0481,0.0499,0.0537,0.0623,0.0678,0.0751,0.0815,0.0878,0.0896,0.0937,0.0971,0.0938,0.0659,0.041,0.0046,-0.0144,-0.0329,-0.0384,-0.0373,-0.0362,-0.0339,-0.0366,-0.0361,-0.0401,-0.0401,-0.0401,-0.0401,-0.0401,0.0517,0.0561,0.0614,0.0697,0.0769,0.0866,0.0938,0.1014,0.1107,0.1181,0.1133,0.1098,0.0795,0.0352,0.0019,-0.0336,-0.033,-0.0452,-0.045,-0.0448,-0.0423,-0.0402,-0.0471,-0.0471,-0.0471,-0.0472,-0.0472,0,0.0564,0.0615,0.069,0.0784,0.0868,0.0905,0.103,0.1106,0.1229,0.1299,0.1333,0.107,0.0777,0.0426,-0.0092,-0.0405,-0.0441,-0.0508,-0.0473,-0.047,-0.0467,-0.0442,-0.0496,-0.0497,-0.0498,-0.0498,0,0,0.0585,0.0664,0.0706,0.0846,0.0925,0.1053,0.1135,0.1252,0.1336,0.1419,0.1418,0.1355,0.0919,0.0551,0.0115,-0.0182,-0.0257,-0.0253,-0.0201,-0.0106,-0.0099,-0.0405,-0.0359,0,0,0,0,0]}],[{"header":{"parameterUnit":"m.s-1","parameterCategory":2,"la1":30.2991,"la2":30.254,"lo1":-89.0895,"lo2":-89.0444,"dy":0.0017,"dx":0.0017,"nx":28,"ny":28,"refTime":"2025-04-26T09:00:00:Z","depth":"4","parameterNumber":2,"parameterNumberName":"U-component_of_CURRENTS"},"data":[0,0,0,0,0,0,0,0,0,0,0,0,0,0,0,0,0,0,0,0,0,0,0,0,0,0,0,0,0,0,0,0,0,0,0,0,0,0,0,0,0,0,0,0,0,0,0,0,0,0,0,0,0,0,0,0,0,0,0.1443,0.1444,0,0.1546,0.1548,0.1549,0.1609,0.1609,0.1609,0.161,0.1705,0.1707,0.1709,0,0,0,0,0,0,0,0,0,0,0,0,0,0.1315,0.1317,0.1443,0.1444,0.1446,0.1546,0.1548,0.1549,0.1609,0.1609,0.1609,0.161,0.1704,0.1707,0.1709,0,0,0,0,0,0,0,0,0,0,0,0,0,0.1388,0.1317,0.1443,0.1488,0.1494,0.1546,0.1548,0.1549,0.1609,0.1609,0.161,0.161,0.1703,0.1707,0.171,0.172,0,0,0.172,0.1721,0,0,0,0,0,0,0,0,0.1384,0.1393,0.148,0.1485,0.1491,0.1566,0.1538,0.1606,0.1608,0.1564,0.161,0.161,0.1658,0.1665,0.1682,0.1724,0.1728,0.172,0.1722,0.1724,0.1725,0,0,0,0,0,0,0,0.1379,0.1389,0.1483,0.1482,0.1489,0.151,0.1521,0.1551,0.1605,0.1568,0.1572,0.1586,0.1661,0.1679,0.1685,0.173,0.172,0.1723,0.1725,0.1726,0.1885,0.1888,0,0,0,0,0,0,0.1368,0.1384,0.1479,0.1486,0.1439,0.1512,0.1524,0.1541,0.1606,0.1616,0.1585,0.1588,0.1673,0.1681,0.1688,0.1793,0.1724,0.1727,0.1729,0.1883,0.1886,0.1888,0,0,0,0,0,0,0.1364,0.1375,0.1475,0.1438,0.1452,0.1514,0.1532,0.1542,0.1595,0.1619,0.163,0.1631,0.1673,0.1683,0.1749,0.1794,0.1728,0.1731,0.1881,0.1884,0.1887,0.1945,0,0,0,0,0,0,0.136,0.1373,0.1398,0.1437,0.1454,0.1532,0.1532,0.1544,0.1601,0.1607,0.1661,0.1669,0.1675,0.1744,0.1752,0.1797,0.1734,0.1878,0.1882,0.1886,0.1941,0.195,0.1959,0,0,0,0,0,0.1355,0.139,0.1399,0.1411,0.1481,0.1534,0.1546,0.1589,0.1603,0.1636,0.1673,0.1669,0.1776,0.1748,0.1757,0.1804,0.1876,0.1881,0.1886,0.1937,0.1948,0.1958,0,0,0,0,0,0,0.1355,0.1401,0.1411,0.146,0.1503,0.1545,0.1586,0.1609,0.1665,0.1681,0.1696,0.1707,0.178,0.1787,0.1755,0.1864,0.1826,0.1833,0.1862,0.1873,0.1882,0.1879,0.1737,0,0,0,0,0,0.1362,0.1402,0.144,0.1485,0.1506,0.155,0.1583,0.1613,0.1659,0.1686,0.1724,0.1765,0.1803,0.1834,0.1867,0.1927,0.1932,0.1965,0.1974,0.1981,0.1987,0.2029,0.2042,0.1905,0.1905,0.1905,0,0,0.1375,0.1407,0.1431,0.1488,0.1524,0.1567,0.1573,0.1637,0.1683,0.1686,0.1773,0.18,0.1826,0.1893,0.1927,0.1908,0.2027,0.1988,0.1994,0.1995,0.2036,0.2049,0.206,0.1908,0.1908,0.1907,0,0,0.1413,0.1448,0.1487,0.1524,0.1586,0.1611,0.1635,0.1697,0.1737,0.1812,0.1825,0.1881,0.1949,0.1974,0.1991,0.2072,0.207,0.2092,0.214,0.2181,0.2193,0.2202,0.2235,0.2248,0.2099,0.2099,0.2099,0,0.1429,0.1475,0.151,0.1554,0.1588,0.1632,0.1676,0.1724,0.1805,0.1841,0.1852,0.1961,0.1984,0.2051,0.2083,0.2092,0.2114,0.2093,0.2192,0.2201,0.221,0.2242,0.2254,0.2103,0.2102,0.2102,0.2102,0,0.148,0.1527,0.1558,0.1619,0.1663,0.1715,0.1768,0.183,0.188,0.1921,0.2015,0.2053,0.2113,0.2136,0.2136,0.2218,0.2213,0.2194,0.2158,0.2227,0.2256,0.2269,0.2108,0.2106,0.2105,0.2104,0,0,0.1482,0.1573,0.1586,0.1617,0.17,0.1736,0.1819,0.1892,0.1948,0.2032,0.2104,0.2178,0.2204,0.2226,0.2242,0.2283,0.2368,0.2276,0.2276,0.2298,0.2467,0.233,0.233,0.2371,0.2373,0.2375,0.2464,0,0.151,0.1586,0.1631,0.1708,0.1743,0.1808,0.1877,0.1954,0.202,0.2105,0.2161,0.2238,0.2236,0.2277,0.2321,0.2359,0.2402,0.2346,0.2405,0.2407,0.2269,0.234,0.2382,0.2473,0.2476,0.2478,0.2479,0,0.1528,0.1579,0.165,0.1738,0.1762,0.1822,0.1923,0.1993,0.2108,0.2166,0.225,0.2296,0.2389,0.2367,0.2472,0.2441,0.2464,0.2483,0.2486,0.2344,0.2292,0.2389,0.2501,0.2499,0.2497,0.2496,0.2495,0,0.1481,0.1584,0.1638,0.167,0.1781,0.1837,0.1905,0.2016,0.2081,0.2212,0.2276,0.2375,0.2447,0.2497,0.2551,0.2525,0.2651,0.2611,0.2508,0.2499,0.2567,0.2556,0.2677,0.2677,0.2677,0.2677,0.2676,0,0.1465,0.1512,0.1626,0.1655,0.1731,0.182,0.191,0.1995,0.2121,0.2195,0.2307,0.2374,0.2487,0.2567,0.2589,0.2592,0.2685,0.2529,0.2516,0.2592,0.2582,0.2576,0.2563,0.268,0.2679,0.2678,0.2678,0,0.1396,0.1474,0.154,0.1665,0.1709,0.1764,0.1906,0.1965,0.2102,0.2204,0.2256,0.2411,0.2512,0.2603,0.2695,0.2631,0.265,0.2626,0.2722,0.2711,0.246,0.2449,0.2508,0.2504,0.2501,0.2498,0.2496,0,0.1362,0.1392,0.1524,0.1566,0.1629,0.1725,0.1789,0.1939,0.2002,0.2199,0.2238,0.2398,0.2481,0.251,0.2607,0.2649,0.2618,0.2605,0.2507,0.2462,0.2445,0.244,0.2434,0.249,0.2489,0.2488,0.2488,0,0.1294,0.1354,0.1407,0.1492,0.1567,0.1639,0.1746,0.1778,0.1946,0.209,0.2172,0.2235,0.2349,0.2421,0.2485,0.2501,0.2597,0.2568,0.2574,0.2482,0.2441,0.2426,0.2425,0.2476,0.2477,0.2479,0.2479,0,0.1239,0.1258,0.1335,0.1399,0.1485,0.1528,0.1596,0.1679,0.1763,0.1979,0.1999,0.217,0.2318,0.2346,0.2399,0.2417,0.2371,0.2278,0.2297,0.2312,0.2207,0.2124,0.2061,0,0,0,0,0,0.1173,0.1186,0.1236,0.1296,0.1376,0.1434,0.1558,0.1631,0.1788,0.1798,0.1896,0.199,0.2077,0.2168,0.215,0.2316,0.2381,0.2283,0.2282,0.241,0.2424,0.2319,0,0,0,0,0,0,0.1127,0.117,0.1195,0.1197,0.1222,0.13,0.1375,0.1485,0.1503,0.1671,0.1736,0.1869,0.1992,0.2071,0.2111,0.214,0.2098,0.2396,0.2391,0.2403,0.2415,0.2426,0.2323,0,0,0,0,0]},{"header":{"parameterUnit":"m.s-1","parameterCategory":2,"la1":30.2991,"la2":30.254,"lo1":-89.0895,"lo2":-89.0444,"dy":0.0017,"dx":0.0017,"nx":28,"ny":28,"refTime":"2025-04-26T09:00:00:Z","depth":"4","parameterNumber":3,"parameterNumberName":"V-component_of_CURRENTS"},"data":[0,0,0,0,0,0,0,0,0,0,0,0,0,0,0,0,0,0,0,0,0,0,0,0,0,0,0,0,0,0,0,0,0,0,0,0,0,0,0,0,0,0,0,0,0,0,0,0,0,0,0,0,0,0,0,0,0,0,0.0045,0.0044,0,-0.0005,-0.0005,-0.0006,-0.0023,-0.0022,-0.0022,-0.0022,-0.0095,-0.0097,-0.0099,0,0,0,0,0,0,0,0,0,0,0,0,0,0.0093,0.0093,0.0045,0.0044,0.0044,-0.0004,-0.0005,-0.0006,-0.0023,-0.0022,-0.0022,-0.0022,-0.0095,-0.0097,-0.01,0,0,0,0,0,0,0,0,0,0,0,0,0,0.0061,0.0092,0.0045,0.0029,0.0027,-0.0004,-0.0005,-0.0006,-0.0023,-0.0022,-0.0022,-0.0022,-0.0094,-0.0097,-0.01,-0.0125,0,0,-0.011,-0.0111,0,0,0,0,0,0,0,0,0.0063,0.0059,0.0032,0.003,0.0028,-0.0007,-0.0015,-0.0047,-0.0023,-0.0003,-0.0022,-0.0022,-0.0069,-0.0074,-0.0083,-0.0128,-0.0132,-0.011,-0.0112,-0.0113,-0.0114,0,0,0,0,0,0,0,0.0065,0.0061,0.0026,0.0032,0.0029,0.0014,0.001,-0.0021,-0.0037,-0.0005,-0.0006,-0.0012,-0.007,-0.008,-0.0085,-0.0133,-0.011,-0.0113,-0.0115,-0.0116,-0.0202,-0.0202,0,0,0,0,0,0,0.0072,0.0063,0.0027,0.0024,0.0046,0.0013,0.0008,0.0004,-0.0036,-0.0042,-0.0013,-0.0013,-0.0075,-0.0081,-0.0088,-0.0111,-0.0113,-0.0116,-0.0118,-0.0202,-0.0202,-0.0203,0,0,0,0,0,0,0.0073,0.0069,0.0029,0.0042,0.0036,0.0012,0.0007,0.0003,-0.0007,-0.0042,-0.0048,-0.0018,-0.0075,-0.0083,-0.0112,-0.0114,-0.0118,-0.0121,-0.0201,-0.0202,-0.0202,-0.0162,0,0,0,0,0,0,0.0075,0.007,0.0069,0.0043,0.0036,0.0014,0.0007,0.0002,-0.0011,-0.0012,-0.0049,-0.0055,-0.0075,-0.0107,-0.0115,-0.0118,-0.0123,-0.0201,-0.0201,-0.0202,-0.0163,-0.0162,-0.016,0,0,0,0,0,0.0077,0.0075,0.0069,0.0065,0.0035,0.0014,0.0009,-0.0007,-0.0012,-0.0015,-0.0039,-0.0054,-0.0117,-0.0109,-0.0119,-0.0123,-0.02,-0.0201,-0.0202,-0.0164,-0.0162,-0.016,0,0,0,0,0,0,0.0091,0.0072,0.0066,0.0057,0.0039,0.0011,0.0006,-0.0007,-0.0029,-0.003,-0.006,-0.0068,-0.0094,-0.0117,-0.0108,-0.0151,-0.0161,-0.0164,-0.0129,-0.0128,-0.0126,-0.011,-0.0126,0,0,0,0,0,0.0095,0.0091,0.0067,0.006,0.0054,0.003,0.0019,0.0007,-0.0016,-0.0024,-0.0051,-0.008,-0.0106,-0.0122,-0.015,-0.0175,-0.0198,-0.0185,-0.0184,-0.0182,-0.0176,-0.0212,-0.0213,-0.0205,-0.0205,-0.0205,0,0,0.0098,0.0086,0.0084,0.0063,0.0049,0.0044,0.0024,0.001,0.0005,-0.0031,-0.0047,-0.0076,-0.0112,-0.0136,-0.015,-0.0155,-0.0197,-0.0183,-0.0181,-0.0176,-0.0213,-0.0214,-0.0214,-0.0206,-0.0206,-0.0206,0,0,0.0106,0.0094,0.0095,0.0084,0.0065,0.0051,0.0049,0.0022,0.0011,-0.0011,-0.0036,-0.0065,-0.0107,-0.0131,-0.0148,-0.0158,-0.0187,-0.017,-0.0149,-0.0184,-0.0185,-0.0186,-0.0216,-0.0219,-0.0169,-0.0169,-0.0169,0,0.0111,0.0111,0.0091,0.0091,0.0088,0.0058,0.0062,0.0044,0.0011,0.0003,-0.0009,-0.007,-0.0102,-0.0129,-0.0132,-0.0153,-0.0176,-0.015,-0.0181,-0.0182,-0.0184,-0.0214,-0.0219,-0.0167,-0.0168,-0.0168,-0.0168,0,0.0121,0.0123,0.0122,0.0117,0.0109,0.0106,0.0084,0.0073,0.0055,0.0035,0.0005,-0.0042,-0.0074,-0.0095,-0.0116,-0.0144,-0.0158,-0.0173,-0.0181,-0.0182,-0.0214,-0.022,-0.0165,-0.0165,-0.0166,-0.0166,0,0,0.0133,0.0132,0.0133,0.0144,0.0126,0.0125,0.0117,0.0104,0.0108,0.0062,0.0058,0.0,-0.0026,-0.0048,-0.0085,-0.0121,-0.0156,-0.0148,-0.0151,-0.0168,-0.0231,-0.0221,-0.0226,-0.0176,-0.0176,-0.0177,-0.0249,0,0.015,0.0166,0.0157,0.0176,0.0185,0.0166,0.0167,0.015,0.013,0.0116,0.006,0.004,-0.0008,-0.0019,-0.0065,-0.0127,-0.0169,-0.0135,-0.0235,-0.0238,-0.0222,-0.0232,-0.0179,-0.0253,-0.0254,-0.0255,-0.0256,0,0.0167,0.0178,0.0201,0.022,0.0223,0.0228,0.0235,0.0231,0.0201,0.0184,0.0146,0.0107,0.0052,0.0012,-0.01,-0.0075,-0.0149,-0.0205,-0.021,-0.0216,-0.0238,-0.0254,-0.0266,-0.0265,-0.0265,-0.0264,-0.0263,0,0.0195,0.0212,0.0237,0.0241,0.0251,0.0262,0.0266,0.0251,0.0264,0.0229,0.0234,0.0155,0.0129,0.0025,-0.0088,-0.0095,-0.0211,-0.0236,-0.0301,-0.0301,-0.0305,-0.0304,-0.0322,-0.0322,-0.0322,-0.0322,-0.0321,0,0.0217,0.0239,0.0255,0.0268,0.0309,0.0299,0.0334,0.0326,0.0325,0.0346,0.0275,0.0274,0.0132,0.0053,-0.0067,-0.0192,-0.0198,-0.0297,-0.0319,-0.0288,-0.0284,-0.031,-0.0307,-0.0324,-0.0324,-0.0323,-0.0323,0,0.0239,0.0247,0.0283,0.0307,0.0323,0.035,0.0391,0.0416,0.0406,0.0432,0.043,0.0365,0.0263,0.0119,-0.0046,-0.0149,-0.028,-0.0327,-0.0273,-0.0291,-0.0355,-0.035,-0.0408,-0.0408,-0.0408,-0.0408,-0.0408,0,0.0249,0.0268,0.0316,0.0348,0.0362,0.0405,0.0441,0.0453,0.0487,0.0491,0.0512,0.0434,0.0369,0.016,-0.0013,-0.0237,-0.0276,-0.0351,-0.0369,-0.0348,-0.0364,-0.0359,-0.0353,-0.0409,-0.0409,-0.0409,-0.0409,0,0.027,0.0287,0.0317,0.0386,0.0433,0.0491,0.0544,0.058,0.0598,0.0595,0.0594,0.0483,0.0369,0.0186,0.0014,-0.0153,-0.0306,-0.0355,-0.0356,-0.0373,-0.035,-0.0365,-0.0359,-0.041,-0.041,-0.041,-0.0409,0,0.0286,0.0313,0.0358,0.0421,0.0489,0.056,0.0583,0.063,0.0664,0.067,0.0668,0.0537,0.0459,0.0229,0.007,-0.009,-0.0144,-0.0213,-0.0223,-0.0224,-0.0156,-0.0098,-0.0097,0,0,0,0,0,0.0297,0.0335,0.0393,0.0465,0.0535,0.058,0.065,0.0668,0.0693,0.0709,0.0693,0.0589,0.0365,0.0271,0.0115,0.0038,-0.0191,-0.0155,-0.0279,-0.0414,-0.0413,-0.0364,0,0,0,0,0,0,0.0303,0.0358,0.0393,0.0495,0.0554,0.0637,0.0685,0.0702,0.0713,0.0714,0.061,0.0544,0.0335,0.0465,0.0116,0.0064,-0.004,-0.026,-0.0264,-0.0414,-0.0413,-0.0413,-0.0363,0,0,0,0,0]}]]